Will Rogers World Airport Oklahoma City US
ICAO: KOKC
IATA: OKC
Category: Large
Scheduled Services: Yes

Elevation: 1295 ft
TransAlt. 18000 ft.

Airport Communications:
OKE CITY APP/DEP:120.45
ATIS:125.85
CLNC DEL:124.35
GND:121.9
ANG OPS COMD POST:22.56
ROGERS TWR:119.35

KOKC Zoom In..

Runways:

(A) RW 13 length 7800 ft width 150 ft
---- / hdg 130

(B) RW 17L length 9802 ft width 150 ft
ILS 110.90 / hdg 175

(C) RW 17R length 9800 ft width 150 ft
ILS 110.70 / hdg 175

(D) RW 18 length 3078 ft width 75 ft
---- / hdg 175

(E) RW 31 length 7800 ft width 150 ft
---- / hdg 310

(F) RW 35L length 9800 ft width 150 ft
ILS 110.70 / hdg 355

(G) RW 35R length 9802 ft width 150 ft
ILS 110.90 / hdg 355

(H) RW 36 length 3078 ft width 75 ft
---- / hdg 355

Location; KOKC
Day. 30 / Time. 21.52 Zulu
* Altimeter: 30.25
* Temperature: 08° c. 46.4°f.
* Wind from: 230° Speed 04 kn.
Dewpoint: -11° c.
Visibility: 10 Statute Miles.
Clouds: Few 25000 ft.

KOKC 302152Z 23004KT 10SM FEW250 08/M11 A3025 RMK AO2 SLP251 T00781111

Going to: --> -->


Wind From 230°
Speed 04 kn.

 
 
jpsmedia worldairports.se 2020   terms of use